| time (UTC) | temp F | wind direction | speed MPH | gust MPH | rain 1hr in | rain 24hr in | rain mn in | humidity % | barometer mb |
| 20260508033424 | 63 | 189 | 0.0 | 0.0 | 0.00 | 0.00 | 0.00 | 78 | 1016.9 |
| 20260508032921 | 63 | 189 | 0.0 | 0.0 | 0.00 | 0.00 | 0.00 | 77 | 1017.1 |
| 20260508032418 | 63 | 189 | 0.0 | 0.0 | 0.00 | 0.00 | 0.00 | 76 | 1017.1 |
| 20260508031915 | 63 | 189 | 0.0 | 0.0 | 0.00 | 0.00 | 0.00 | 77 | 1017.0 |
| 20260508031412 | 63 | 189 | 0.0 | 0.0 | 0.00 | 0.00 | 0.00 | 76 | 1017.2 |
| 20260508030908 | 63 | 189 | 0.0 | 0.0 | 0.00 | 0.00 | 0.00 | 76 | 1016.9 |
| 20260508030405 | 64 | 189 | 0.0 | 0.0 | 0.00 | 0.00 | 0.00 | 75 | 1016.9 |
| 20260508025902 | 64 | 189 | 0.0 | 0.0 | 0.00 | 0.00 | 0.00 | 74 | 1016.7 |
| 20260508025359 | 64 | 189 | 0.0 | 0.0 | 0.00 | 0.00 | 0.00 | 73 | 1016.8 |
| 20260508024856 | 64 | 189 | 0.0 | 0.0 | 0.00 | 0.00 | 0.00 | 73 | 1017.0 |
| 20260508024352 | 64 | 189 | 0.0 | 0.0 | 0.00 | 0.00 | 0.00 | 73 | 1016.9 |
| 20260508023849 | 65 | 189 | 0.0 | 0.0 | 0.00 | 0.00 | 0.00 | 72 | 1016.8 |
| 20260508023346 | 65 | 189 | 0.0 | 0.0 | 0.00 | 0.00 | 0.00 | 72 | 1017.1 |
| 20260508022843 | 65 | 189 | 0.0 | 0.0 | 0.00 | 0.00 | 0.00 | 72 | 1016.7 |
| 20260508022338 | 65 | 189 | 0.0 | 0.0 | 0.00 | 0.00 | 0.00 | 72 | 1016.8 |
| 20260508021836 | 65 | 189 | 0.0 | 0.0 | 0.00 | 0.00 | 0.00 | 72 | 1016.7 |
| 20260508021332 | 65 | 188 | 0.0 | 0.0 | 0.00 | 0.00 | 0.00 | 71 | 1016.6 |
| 20260508020828 | 66 | 188 | 0.0 | 0.0 | 0.00 | 0.00 | 0.00 | 71 | 1016.5 |
| 20260508020326 | 66 | 187 | 1.0 | 1.0 | 0.00 | 0.00 | 0.00 | 70 | 1016.5 |
| 20260508015823 | 66 | 177 | 1.0 | 1.0 | 0.00 | 0.00 | 0.00 | 71 | 1016.4 |
| 20260508015320 | 66 | 185 | 0.0 | 0.0 | 0.00 | 0.00 | 0.00 | 71 | 1016.5 |
| 20260508014817 | 66 | 188 | 0.0 | 0.0 | 0.00 | 0.00 | 0.00 | 71 | 1016.5 |
| 20260508014314 | 66 | 188 | 0.0 | 0.0 | 0.00 | 0.00 | 0.00 | 70 | 1016.5 |
| 20260508013809 | 66 | 187 | 0.0 | 0.0 | 0.00 | 0.00 | 0.00 | 69 | 1016.5 |
| 20260508013306 | 66 | 193 | 0.0 | 0.0 | 0.00 | 0.00 | 0.00 | 69 | 1016.7 |
| 20260508012803 | 67 | 197 | 0.0 | 1.0 | 0.00 | 0.00 | 0.00 | 69 | 1016.5 |
| 20260508012300 | 67 | 196 | 0.0 | 1.0 | 0.00 | 0.00 | 0.00 | 68 | 1016.3 |
| 20260508011758 | 67 | 195 | 0.0 | 1.0 | 0.00 | 0.00 | 0.00 | 68 | 1016.3 |
| 20260508011255 | 67 | 194 | 0.0 | 0.0 | 0.00 | 0.00 | 0.00 | 68 | 1016.2 |
| 20260508010752 | 67 | 196 | 0.0 | 0.0 | 0.00 | 0.00 | 0.00 | 67 | 1016.5 |
| 20260508010250 | 67 | 200 | 0.0 | 0.0 | 0.00 | 0.00 | 0.00 | 67 | 1016.6 |
| 20260508005747 | 67 | 196 | 1.0 | 2.0 | 0.00 | 0.00 | 0.00 | 66 | 1016.3 |
| 20260508005244 | 68 | 196 | 0.0 | 0.0 | 0.00 | 0.00 | 0.00 | 66 | 1016.6 |
| 20260508004739 | 68 | 184 | 1.0 | 1.0 | 0.00 | 0.00 | 0.00 | 65 | 1016.4 |
| 20260508004236 | 68 | 193 | 1.0 | 1.0 | 0.00 | 0.00 | 0.00 | 65 | 1016.4 |
| 20260508003732 | 68 | 174 | 3.0 | 3.0 | 0.00 | 0.00 | 0.00 | 65 | 1016.7 |
| 20260508003230 | 68 | 195 | 1.0 | 1.0 | 0.00 | 0.00 | 0.00 | 65 | 1016.3 |
| 20260508002726 | 68 | 197 | 1.0 | 1.0 | 0.00 | 0.00 | 0.00 | 64 | 1016.5 |
| 20260508002224 | 68 | 186 | 0.0 | 1.0 | 0.00 | 0.00 | 0.00 | 64 | 1016.5 |
| 20260508001719 | 68 | 194 | 0.0 | 0.0 | 0.00 | 0.00 | 0.00 | 64 | 1016.4 |
| 20260508001215 | 68 | 133 | 1.0 | 2.0 | 0.00 | 0.00 | 0.00 | 64 | 1016.7 |
| 20260508000711 | 68 | 192 | 1.0 | 3.0 | 0.00 | 0.00 | 0.00 | 64 | 1016.5 |
| 20260508000211 | 69 | 180 | 4.0 | 5.0 | 0.00 | 0.00 | 0.00 | 64 | 1016.6 |
| 20260507235705 | 69 | 193 | 3.0 | 3.0 | 0.00 | 0.00 | 0.00 | 64 | 1016.4 |
| 20260507235203 | 69 | 197 | 2.0 | 2.0 | 0.00 | 0.00 | 0.00 | 64 | 1016.4 |
| 20260507234659 | 69 | 179 | 1.0 | 2.0 | 0.00 | 0.00 | 0.00 | 64 | 1016.6 |
| 20260507234156 | 69 | 192 | 3.0 | 5.0 | 0.00 | 0.00 | 0.00 | 64 | 1016.4 |
| 20260507233653 | 69 | 181 | 1.0 | 1.0 | 0.00 | 0.00 | 0.00 | 64 | 1016.4 |
| 20260507233151 | 69 | 185 | 1.0 | 2.0 | 0.00 | 0.00 | 0.00 | 63 | 1016.5 |
| 20260507232648 | 70 | 196 | 2.0 | 5.0 | 0.00 | 0.00 | 0.00 | 63 | 1016.4 |
| 20260507232145 | 70 | 205 | 2.0 | 2.0 | 0.00 | 0.00 | 0.00 | 62 | 1016.4 |
| 20260507231641 | 70 | 189 | 2.0 | 2.0 | 0.00 | 0.00 | 0.00 | 62 | 1016.6 |
| 20260507231138 | 70 | 181 | 3.0 | 3.0 | 0.00 | 0.00 | 0.00 | 62 | 1016.7 |
| 20260507230635 | 70 | 216 | 3.0 | 5.0 | 0.00 | 0.00 | 0.00 | 62 | 1016.4 |
| 20260507230132 | 71 | 180 | 2.0 | 2.0 | 0.00 | 0.00 | 0.00 | 61 | 1016.4 |
| 20260507225632 | 72 | 186 | 1.0 | 1.0 | 0.00 | 0.00 | 0.00 | 59 | 1016.4 |
| 20260507225129 | 73 | 166 | 2.0 | 3.0 | 0.00 | 0.00 | 0.00 | 55 | 1016.4 |
| 20260507224624 | 72 | 164 | 0.0 | 1.0 | 0.00 | 0.00 | 0.00 | 53 | 1016.5 |
| 20260507224121 | 73 | 149 | 0.0 | 0.0 | 0.00 | 0.00 | 0.00 | 53 | 1016.5 |
| 20260507223617 | 73 | 158 | 0.0 | 0.0 | 0.00 | 0.00 | 0.00 | 53 | 1016.5 |
| 20260507223114 | 73 | 139 | 0.0 | 1.0 | 0.00 | 0.00 | 0.00 | 53 | 1016.5 |
| 20260507222611 | 73 | 197 | 2.0 | 3.0 | 0.00 | 0.00 | 0.00 | 51 | 1016.5 |
| 20260507222108 | 73 | 160 | 0.0 | 0.0 | 0.00 | 0.00 | 0.00 | 52 | 1016.6 |
| 20260507221604 | 73 | 146 | 0.0 | 1.0 | 0.00 | 0.00 | 0.00 | 52 | 1016.4 |
| 20260507221101 | 72 | 87 | 1.0 | 1.0 | 0.00 | 0.00 | 0.00 | 52 | 1016.7 |
| 20260507220558 | 73 | 126 | 0.0 | 1.0 | 0.00 | 0.00 | 0.00 | 52 | 1016.8 |
| 20260507220055 | 73 | 167 | 0.0 | 0.0 | 0.00 | 0.00 | 0.00 | 52 | 1016.8 |
| 20260507215551 | 74 | 120 | 1.0 | 1.0 | 0.00 | 0.00 | 0.00 | 52 | 1016.7 |
| 20260507215050 | 73 | 83 | 1.0 | 2.0 | 0.00 | 0.00 | 0.00 | 52 | 1016.6 |
| 20260507214546 | 73 | 130 | 0.0 | 1.0 | 0.00 | 0.00 | 0.00 | 53 | 1016.9 |
| 20260507214042 | 73 | 94 | 1.0 | 1.0 | 0.00 | 0.00 | 0.00 | 51 | 1017.1 |
| 20260507213539 | 73 | 136 | 1.0 | 2.0 | 0.00 | 0.00 | 0.00 | 51 | 1016.8 |
| 20260507213036 | 74 | 85 | 0.0 | 1.0 | 0.00 | 0.00 | 0.00 | 51 | 1017.2 |
| 20260507212532 | 74 | 129 | 1.0 | 2.0 | 0.00 | 0.00 | 0.00 | 51 | 1017.1 |
| 20260507212029 | 73 | 109 | 0.0 | 1.0 | 0.00 | 0.00 | 0.00 | 53 | 1017.1 |
| 20260507211526 | 73 | 67 | 1.0 | 1.0 | 0.00 | 0.00 | 0.00 | 53 | 1017.0 |
| 20260507211022 | 73 | 156 | 0.0 | 1.0 | 0.00 | 0.00 | 0.00 | 54 | 1017.2 |
| 20260507210519 | 73 | 109 | 0.0 | 1.0 | 0.00 | 0.00 | 0.00 | 54 | 1017.2 |
| 20260507210016 | 73 | 168 | 0.0 | 0.0 | 0.00 | 0.00 | 0.00 | 54 | 1017.5 |
| 20260507205512 | 74 | 60 | 1.0 | 1.0 | 0.00 | 0.00 | 0.00 | 53 | 1017.0 |
| 20260507205009 | 73 | 205 | 0.0 | 0.0 | 0.00 | 0.00 | 0.00 | 53 | 1017.3 |
| 20260507204505 | 74 | 132 | 2.0 | 3.0 | 0.00 | 0.00 | 0.00 | 53 | 1017.1 |
| 20260507204003 | 74 | 159 | 0.0 | 0.0 | 0.00 | 0.00 | 0.00 | 53 | 1017.1 |
| 20260507203501 | 74 | 107 | 0.0 | 1.0 | 0.00 | 0.00 | 0.00 | 54 | 1017.2 |
| 20260507202957 | 74 | 131 | 2.0 | 2.0 | 0.00 | 0.00 | 0.00 | 51 | 1017.2 |
| 20260507202453 | 73 | 111 | 1.0 | 1.0 | 0.00 | 0.00 | 0.00 | 53 | 1017.5 |
| 20260507201949 | 73 | 63 | 1.0 | 1.0 | 0.00 | 0.00 | 0.00 | 53 | 1017.6 |
| 20260507201449 | 75 | 92 | 1.0 | 2.0 | 0.00 | 0.00 | 0.00 | 53 | 1017.5 |
| 20260507200947 | 74 | 85 | 1.0 | 1.0 | 0.00 | 0.00 | 0.00 | 53 | 1017.8 |
| 20260507200442 | 74 | 146 | 2.0 | 2.0 | 0.00 | 0.00 | 0.00 | 54 | 1017.8 |
| 20260507195938 | 75 | 164 | 2.0 | 2.0 | 0.00 | 0.00 | 0.00 | 52 | 1017.9 |
| 20260507195436 | 74 | 152 | 2.0 | 2.0 | 0.00 | 0.00 | 0.00 | 53 | 1017.7 |
| 20260507194933 | 75 | 96 | 0.0 | 0.0 | 0.00 | 0.00 | 0.00 | 53 | 1017.9 |
| 20260507194430 | 74 | 246 | 0.0 | 0.0 | 0.00 | 0.00 | 0.00 | 50 | 1018.1 |
| 20260507193926 | 75 | 155 | 1.0 | 1.0 | 0.00 | 0.00 | 0.00 | 50 | 1018.3 |
| 20260507193423 | 75 | 309 | 3.0 | 3.0 | 0.00 | 0.00 | 0.00 | 50 | 1018.1 |
| 20260507192920 | 74 | 104 | 1.0 | 2.0 | 0.00 | 0.00 | 0.00 | 51 | 1018.1 |
| 20260507192415 | 74 | 283 | 1.0 | 2.0 | 0.00 | 0.00 | 0.00 | 51 | 1018.1 |
| 20260507191913 | 76 | 63 | 1.0 | 1.0 | 0.00 | 0.00 | 0.00 | 51 | 1018.4 |
| 20260507191409 | 76 | 305 | 3.0 | 3.0 | 0.00 | 0.00 | 0.00 | 49 | 1018.4 |
| 20260507190905 | 75 | 157 | 1.0 | 1.0 | 0.00 | 0.00 | 0.00 | 52 | 1018.6 |
| 20260507190403 | 75 | 69 | 1.0 | 2.0 | 0.00 | 0.00 | 0.00 | 52 | 1018.5 |
| 20260507185902 | 74 | 277 | 1.0 | 2.0 | 0.00 | 0.00 | 0.00 | 56 | 1018.7 |
| 20260507185359 | 74 | 343 | 1.0 | 1.0 | 0.00 | 0.00 | 0.00 | 52 | 1018.3 |
| 20260507184856 | 73 | 132 | 2.0 | 2.0 | 0.00 | 0.00 | 0.00 | 53 | 1018.6 |
| 20260507184354 | 73 | 351 | 4.0 | 5.0 | 0.00 | 0.00 | 0.00 | 53 | 1018.5 |
| 20260507183850 | 73 | 274 | 1.0 | 2.0 | 0.00 | 0.00 | 0.00 | 52 | 1018.6 |
| 20260507183347 | 73 | 15 | 3.0 | 3.0 | 0.00 | 0.00 | 0.00 | 51 | 1018.6 |
| 20260507182845 | 73 | 123 | 2.0 | 3.0 | 0.00 | 0.00 | 0.00 | 51 | 1018.8 |
| 20260507182341 | 73 | 326 | 4.0 | 7.0 | 0.00 | 0.00 | 0.00 | 51 | 1018.8 |
| 20260507181837 | 72 | 278 | 2.0 | 3.0 | 0.00 | 0.00 | 0.00 | 53 | 1019.1 |
| 20260507181333 | 71 | 44 | 2.0 | 2.0 | 0.00 | 0.00 | 0.00 | 54 | 1018.8 |
| 20260507180830 | 71 | 343 | 2.0 | 3.0 | 0.00 | 0.00 | 0.00 | 53 | 1019.1 |
| 20260507180327 | 72 | 35 | 1.0 | 1.0 | 0.00 | 0.00 | 0.00 | 54 | 1019.3 |
| 20260507175822 | 72 | 320 | 3.0 | 3.0 | 0.00 | 0.00 | 0.00 | 54 | 1019.2 |
| 20260507175320 | 71 | 358 | 1.0 | 2.0 | 0.00 | 0.00 | 0.00 | 56 | 1019.4 |
| 20260507174817 | 70 | 261 | 1.0 | 1.0 | 0.00 | 0.00 | 0.00 | 56 | 1019.4 |
| 20260507174315 | 70 | 306 | 3.0 | 3.0 | 0.00 | 0.00 | 0.00 | 56 | 1019.4 |
| 20260507173812 | 71 | 263 | 3.0 | 5.0 | 0.00 | 0.00 | 0.00 | 56 | 1019.6 |
| 20260507173309 | 70 | 69 | 1.0 | 1.0 | 0.00 | 0.00 | 0.00 | 56 | 1019.9 |
| 20260507172805 | 70 | 312 | 1.0 | 1.0 | 0.00 | 0.00 | 0.00 | 56 | 1019.8 |
| 20260507172306 | 70 | 11 | 2.0 | 2.0 | 0.00 | 0.00 | 0.00 | 56 | 1020.2 |
| 20260507171758 | 70 | 246 | 2.0 | 2.0 | 0.00 | 0.00 | 0.00 | 57 | 1020.1 |
| 20260507171255 | 69 | 58 | 2.0 | 2.0 | 0.00 | 0.00 | 0.00 | 55 | 1020.3 |
| 20260507170752 | 69 | 330 | 4.0 | 5.0 | 0.00 | 0.00 | 0.00 | 56 | 1020.5 |
| 20260507170248 | 70 | 308 | 5.0 | 7.0 | 0.00 | 0.00 | 0.00 | 57 | 1020.7 |
| 20260507165744 | 69 | 21 | 0.0 | 0.0 | 0.00 | 0.00 | 0.00 | 59 | 1020.8 |
| 20260507165240 | 70 | 283 | 4.0 | 6.0 | 0.00 | 0.00 | 0.00 | 57 | 1020.8 |
| 20260507164737 | 69 | 100 | 1.0 | 1.0 | 0.00 | 0.00 | 0.00 | 60 | 1020.7 |
| 20260507164234 | 68 | 286 | 2.0 | 2.0 | 0.00 | 0.00 | 0.00 | 60 | 1020.8 |
| 20260507163731 | 68 | 313 | 3.0 | 6.0 | 0.00 | 0.00 | 0.00 | 60 | 1020.8 |
| 20260507163229 | 68 | 303 | 3.0 | 3.0 | 0.00 | 0.00 | 0.00 | 60 | 1021.1 |
| 20260507162724 | 68 | 303 | 1.0 | 1.0 | 0.00 | 0.00 | 0.00 | 60 | 1021.0 |
| 20260507162221 | 67 | 38 | 0.0 | 0.0 | 0.00 | 0.00 | 0.00 | 63 | 1021.1 |
| 20260507161718 | 67 | 58 | 1.0 | 2.0 | 0.00 | 0.00 | 0.00 | 62 | 1020.8 |
| 20260507161214 | 66 | 210 | 1.0 | 2.0 | 0.00 | 0.00 | 0.00 | 65 | 1020.8 |
| 20260507160710 | 66 | 162 | 1.0 | 1.0 | 0.00 | 0.00 | 0.00 | 64 | 1021.1 |
| 20260507160207 | 66 | 292 | 1.0 | 2.0 | 0.00 | 0.00 | 0.00 | 63 | 1020.9 |
| 20260507155702 | 67 | 116 | 0.0 | 0.0 | 0.00 | 0.00 | 0.00 | 64 | 1020.9 |
| 20260507155159 | 66 | 131 | 0.0 | 1.0 | 0.00 | 0.00 | 0.00 | 65 | 1021.0 |
| 20260507154655 | 66 | 178 | 1.0 | 1.0 | 0.00 | 0.00 | 0.00 | 65 | 1021.2 |
| 20260507154153 | 66 | 62 | 1.0 | 1.0 | 0.00 | 0.00 | 0.00 | 65 | 1021.0 |
| 20260507153649 | 66 | 353 | 0.0 | 1.0 | 0.00 | 0.00 | 0.00 | 65 | 1021.1 |
| 20260507153146 | 66 | 262 | 1.0 | 2.0 | 0.00 | 0.00 | 0.00 | 67 | 1021.1 |
| 20260507152642 | 65 | 285 | 1.0 | 2.0 | 0.00 | 0.00 | 0.00 | 66 | 1021.2 |
| 20260507152138 | 66 | 320 | 2.0 | 3.0 | 0.00 | 0.00 | 0.00 | 64 | 1021.3 |
| 20260507151635 | 65 | 14 | 1.0 | 1.0 | 0.00 | 0.00 | 0.00 | 67 | 1021.2 |
| 20260507151132 | 64 | 78 | 0.0 | 1.0 | 0.00 | 0.00 | 0.00 | 68 | 1021.4 |
| 20260507150629 | 63 | 279 | 1.0 | 1.0 | 0.00 | 0.00 | 0.00 | 71 | 1021.5 |
| 20260507150125 | 62 | 31 | 3.0 | 3.0 | 0.00 | 0.00 | 0.00 | 71 | 1021.4 |
| 20260507145626 | 63 | 297 | 4.0 | 6.0 | 0.00 | 0.00 | 0.00 | 70 | 1021.6 |
| 20260507145124 | 63 | 79 | 1.0 | 1.0 | 0.00 | 0.00 | 0.00 | 71 | 1021.4 |
| 20260507144620 | 63 | 303 | 0.0 | 1.0 | 0.00 | 0.00 | 0.00 | 73 | 1021.4 |
| 20260507144118 | 63 | 332 | 0.0 | 1.0 | 0.00 | 0.00 | 0.00 | 73 | 1021.6 |
| 20260507143614 | 62 | 135 | 0.0 | 0.0 | 0.00 | 0.00 | 0.00 | 74 | 1021.5 |
| 20260507143112 | 62 | 127 | 0.0 | 1.0 | 0.00 | 0.00 | 0.00 | 74 | 1021.6 |
| 20260507142607 | 62 | 81 | 0.0 | 0.0 | 0.00 | 0.00 | 0.00 | 75 | 1021.5 |
| 20260507142104 | 61 | 336 | 1.0 | 1.0 | 0.00 | 0.00 | 0.00 | 76 | 1021.7 |
| 20260507141600 | 60 | 320 | 0.0 | 1.0 | 0.00 | 0.00 | 0.00 | 77 | 1021.5 |
| 20260507141057 | 60 | 275 | 1.0 | 1.0 | 0.00 | 0.00 | 0.00 | 78 | 1021.7 |
| 20260507140554 | 61 | 268 | 1.0 | 1.0 | 0.00 | 0.00 | 0.00 | 77 | 1021.7 |
| 20260507140051 | 59 | 310 | 0.0 | 0.0 | 0.00 | 0.00 | 0.00 | 80 | 1021.9 |
| 20260507135548 | 59 | 276 | 1.0 | 1.0 | 0.00 | 0.00 | 0.00 | 82 | 1022.1 |
| 20260507135045 | 58 | 271 | 1.0 | 1.0 | 0.00 | 0.00 | 0.00 | 85 | 1022.0 |
| 20260507134542 | 58 | 276 | 0.0 | 0.0 | 0.00 | 0.00 | 0.00 | 86 | 1021.9 |
| 20260507134037 | 57 | 276 | 0.0 | 1.0 | 0.00 | 0.00 | 0.00 | 88 | 1022.2 |
| 20260507133534 | 57 | 283 | 1.0 | 1.0 | 0.00 | 0.00 | 0.00 | 89 | 1022.1 |
| 20260507133032 | 57 | 263 | 0.0 | 1.0 | 0.00 | 0.00 | 0.00 | 91 | 1022.1 |
| 20260507132528 | 56 | 262 | 1.0 | 1.0 | 0.00 | 0.00 | 0.00 | 92 | 1022.1 |
| 20260507132025 | 56 | 280 | 1.0 | 2.0 | 0.00 | 0.00 | 0.00 | 93 | 1022.1 |
| 20260507131522 | 55 | 255 | 1.0 | 1.0 | 0.00 | 0.00 | 0.00 | 94 | 1022.1 |
| 20260507131019 | 55 | 262 | 2.0 | 2.0 | 0.00 | 0.00 | 0.00 | 95 | 1022.0 |
| 20260507130515 | 54 | 259 | 0.0 | 1.0 | 0.00 | 0.00 | 0.00 | 96 | 1021.9 |
| 20260507130014 | 54 | 262 | 1.0 | 1.0 | 0.00 | 0.00 | 0.00 | 97 | 1021.9 |
| 20260507125512 | 54 | 265 | 0.0 | 0.0 | 0.00 | 0.00 | 0.00 | 97 | 1022.0 |
| 20260507125011 | 53 | 274 | 0.0 | 0.0 | 0.00 | 0.00 | 0.00 | 97 | 1022.0 |
| 20260507124506 | 53 | 275 | 0.0 | 0.0 | 0.00 | 0.00 | 0.00 | 98 | 1021.6 |
| 20260507124003 | 53 | 275 | 0.0 | 0.0 | 0.00 | 0.00 | 0.00 | 98 | 1021.7 |
| 20260507123501 | 53 | 275 | 0.0 | 0.0 | 0.00 | 0.00 | 0.00 | 98 | 1021.9 |
| 20260507122957 | 53 | 275 | 0.0 | 0.0 | 0.00 | 0.00 | 0.00 | 98 | 1021.8 |
| 20260507122453 | 52 | 275 | 0.0 | 0.0 | 0.00 | 0.00 | 0.00 | 98 | 1021.7 |
| 20260507121949 | 52 | 275 | 0.0 | 0.0 | 0.00 | 0.00 | 0.00 | 98 | 1021.8 |
| 20260507121444 | 52 | 275 | 0.0 | 0.0 | 0.00 | 0.00 | 0.00 | 98 | 1021.4 |
| 20260507120941 | 51 | 275 | 0.0 | 0.0 | 0.00 | 0.00 | 0.00 | 98 | 1021.5 |
| 20260507120437 | 51 | 275 | 0.0 | 0.0 | 0.00 | 0.00 | 0.00 | 98 | 1021.4 |
| 20260507115934 | 51 | 275 | 0.0 | 0.0 | 0.00 | 0.00 | 0.00 | 98 | 1021.3 |
| 20260507115430 | 51 | 275 | 0.0 | 0.0 | 0.00 | 0.00 | 0.00 | 98 | 1021.4 |
| 20260507114926 | 51 | 275 | 0.0 | 0.0 | 0.00 | 0.00 | 0.00 | 98 | 1021.2 |
| 20260507114423 | 51 | 275 | 0.0 | 0.0 | 0.00 | 0.00 | 0.00 | 98 | 1020.9 |
| 20260507113920 | 51 | 276 | 0.0 | 0.0 | 0.00 | 0.00 | 0.00 | 98 | 1021.1 |
| 20260507113417 | 51 | 276 | 0.0 | 0.0 | 0.00 | 0.00 | 0.00 | 98 | 1021.2 |
| 20260507112914 | 51 | 276 | 0.0 | 0.0 | 0.00 | 0.00 | 0.00 | 97 | 1021.3 |
| 20260507112412 | 51 | 276 | 0.0 | 0.0 | 0.00 | 0.00 | 0.00 | 98 | 1021.1 |
| 20260507111909 | 51 | 276 | 0.0 | 0.0 | 0.00 | 0.00 | 0.00 | 97 | 1021.0 |
| 20260507111406 | 51 | 276 | 0.0 | 0.0 | 0.00 | 0.00 | 0.00 | 97 | 1021.0 |
| 20260507110902 | 51 | 276 | 0.0 | 0.0 | 0.00 | 0.00 | 0.00 | 97 | 1021.2 |
| 20260507110358 | 52 | 276 | 0.0 | 0.0 | 0.00 | 0.00 | 0.00 | 97 | 1020.8 |
| 20260507105855 | 52 | 276 | 0.0 | 0.0 | 0.00 | 0.00 | 0.00 | 97 | 1020.5 |
| 20260507105352 | 52 | 276 | 0.0 | 0.0 | 0.00 | 0.00 | 0.00 | 97 | 1020.3 |
| 20260507104848 | 52 | 276 | 0.0 | 0.0 | 0.00 | 0.00 | 0.00 | 97 | 1020.3 |
| 20260507104345 | 51 | 276 | 0.0 | 0.0 | 0.00 | 0.00 | 0.00 | 97 | 1020.3 |
| 20260507103841 | 52 | 276 | 0.0 | 0.0 | 0.00 | 0.00 | 0.00 | 97 | 1019.9 |
| 20260507103338 | 51 | 276 | 0.0 | 0.0 | 0.00 | 0.00 | 0.00 | 97 | 1019.9 |
| 20260507102834 | 51 | 276 | 0.0 | 0.0 | 0.00 | 0.00 | 0.00 | 97 | 1019.9 |
| 20260507102331 | 51 | 276 | 0.0 | 0.0 | 0.00 | 0.00 | 0.00 | 96 | 1020.1 |
| 20260507101828 | 51 | 276 | 0.0 | 0.0 | 0.00 | 0.00 | 0.00 | 96 | 1019.8 |
| 20260507101327 | 51 | 276 | 0.0 | 0.0 | 0.00 | 0.00 | 0.00 | 96 | 1020.1 |
| 20260507100825 | 51 | 276 | 0.0 | 0.0 | 0.00 | 0.00 | 0.00 | 96 | 1019.8 |
| 20260507100323 | 52 | 276 | 0.0 | 0.0 | 0.00 | 0.00 | 0.00 | 96 | 1019.7 |
| 20260507095821 | 52 | 276 | 0.0 | 0.0 | 0.00 | 0.00 | 0.00 | 95 | 1019.7 |
| 20260507095317 | 52 | 276 | 0.0 | 0.0 | 0.00 | 0.00 | 0.00 | 95 | 1019.7 |
| 20260507094814 | 52 | 276 | 0.0 | 0.0 | 0.00 | 0.00 | 0.00 | 95 | 1019.7 |
| 20260507094311 | 52 | 276 | 0.0 | 0.0 | 0.00 | 0.00 | 0.00 | 95 | 1019.5 |
| 20260507093808 | 52 | 276 | 0.0 | 0.0 | 0.00 | 0.00 | 0.00 | 95 | 1019.4 |
| 20260507093306 | 52 | 276 | 0.0 | 0.0 | 0.00 | 0.00 | 0.00 | 94 | 1019.5 |
| 20260507092804 | 53 | 276 | 0.0 | 0.0 | 0.00 | 0.00 | 0.00 | 94 | 1019.4 |
| 20260507092300 | 53 | 277 | 0.0 | 0.0 | 0.00 | 0.00 | 0.00 | 94 | 1019.5 |
| 20260507091756 | 53 | 277 | 0.0 | 0.0 | 0.00 | 0.00 | 0.00 | 93 | 1019.5 |
| 20260507091253 | 53 | 278 | 1.0 | 1.0 | 0.00 | 0.00 | 0.00 | 93 | 1019.4 |
| 20260507090753 | 53 | 278 | 0.0 | 0.0 | 0.00 | 0.00 | 0.00 | 93 | 1019.2 |
| 20260507090250 | 53 | 279 | 0.0 | 0.0 | 0.00 | 0.00 | 0.00 | 93 | 1019.4 |
| 20260507085747 | 53 | 282 | 0.0 | 0.0 | 0.00 | 0.00 | 0.00 | 92 | 1019.5 |
| 20260507085244 | 54 | 289 | 0.0 | 0.0 | 0.00 | 0.00 | 0.00 | 92 | 1019.3 |
| 20260507084742 | 54 | 293 | 0.0 | 1.0 | 0.00 | 0.00 | 0.00 | 91 | 1019.4 |
| 20260507084238 | 54 | 296 | 0.0 | 0.0 | 0.00 | 0.00 | 0.00 | 91 | 1019.2 |
| 20260507083735 | 54 | 299 | 0.0 | 0.0 | 0.00 | 0.00 | 0.00 | 90 | 1019.3 |
| 20260507083232 | 54 | 304 | 0.0 | 0.0 | 0.00 | 0.00 | 0.00 | 90 | 1019.1 |
| 20260507082728 | 54 | 310 | 0.0 | 0.0 | 0.00 | 0.00 | 0.00 | 89 | 1019.3 |
| 20260507082224 | 55 | 317 | 0.0 | 0.0 | 0.00 | 0.00 | 0.00 | 89 | 1019.2 |
| 20260507081721 | 55 | 324 | 0.0 | 1.0 | 0.00 | 0.00 | 0.00 | 89 | 1019.4 |
| 20260507081217 | 55 | 356 | 1.0 | 1.0 | 0.00 | 0.00 | 0.00 | 89 | 1019.1 |
| 20260507080714 | 55 | 74 | 0.0 | 0.0 | 0.00 | 0.00 | 0.00 | 89 | 1019.1 |
| 20260507080210 | 55 | 66 | 0.0 | 0.0 | 0.00 | 0.00 | 0.00 | 88 | 1018.9 |
| 20260507075705 | 55 | 339 | 1.0 | 1.0 | 0.00 | 0.00 | 0.00 | 88 | 1019.2 |
| 20260507075202 | 55 | 26 | 0.0 | 0.0 | 0.00 | 0.00 | 0.00 | 88 | 1019.1 |
| 20260507074658 | 55 | 111 | 1.0 | 1.0 | 0.00 | 0.00 | 0.00 | 88 | 1018.7 |
| 20260507074157 | 55 | 86 | 0.0 | 0.0 | 0.00 | 0.00 | 0.00 | 89 | 1018.7 |
| 20260507073653 | 55 | 104 | 0.0 | 1.0 | 0.00 | 0.00 | 0.00 | 89 | 1018.9 |
| 20260507073149 | 55 | 71 | 0.0 | 1.0 | 0.00 | 0.00 | 0.00 | 89 | 1018.8 |
| 20260507072647 | 55 | 77 | 1.0 | 2.0 | 0.00 | 0.00 | 0.00 | 89 | 1019.0 |
| 20260507072144 | 55 | 56 | 0.0 | 1.0 | 0.00 | 0.00 | 0.00 | 89 | 1018.8 |
| 20260507071642 | 55 | 349 | 0.0 | 0.0 | 0.00 | 0.00 | 0.00 | 89 | 1019.0 |
| 20260507071138 | 56 | 124 | 0.0 | 0.0 | 0.00 | 0.00 | 0.00 | 89 | 1018.7 |
| 20260507070635 | 56 | 117 | 0.0 | 1.0 | 0.00 | 0.00 | 0.00 | 89 | 1018.7 |
| 20260507070132 | 56 | 107 | 0.0 | 1.0 | 0.00 | 0.00 | 0.00 | 89 | 1018.8 |
| 20260507065628 | 56 | 110 | 0.0 | 1.0 | 0.00 | 0.00 | 0.00 | 88 | 1018.9 |
| 20260507065125 | 56 | 91 | 0.0 | 0.0 | 0.00 | 0.00 | 0.00 | 88 | 1018.9 |
| 20260507064623 | 56 | 77 | 1.0 | 1.0 | 0.00 | 0.00 | 0.00 | 88 | 1018.8 |
| 20260507064121 | 56 | 72 | 0.0 | 0.0 | 0.00 | 0.00 | 0.00 | 87 | 1018.9 |
| 20260507063618 | 56 | 76 | 0.0 | 0.0 | 0.00 | 0.00 | 0.00 | 87 | 1018.9 |
| 20260507063115 | 56 | 66 | 0.0 | 0.0 | 0.00 | 0.00 | 0.00 | 87 | 1018.5 |
| 20260507062612 | 56 | 75 | 0.0 | 0.0 | 0.00 | 0.00 | 0.00 | 87 | 1018.5 |
| 20260507062110 | 56 | 89 | 0.0 | 1.0 | 0.00 | 0.00 | 0.00 | 86 | 1018.6 |
| 20260507061607 | 57 | 66 | 1.0 | 1.0 | 0.00 | 0.00 | 0.00 | 86 | 1018.8 |
| 20260507061105 | 57 | 63 | 0.0 | 1.0 | 0.00 | 0.00 | 0.00 | 86 | 1018.8 |
| 20260507060603 | 57 | 67 | 0.0 | 1.0 | 0.00 | 0.00 | 0.00 | 85 | 1018.6 |
| 20260507060059 | 57 | 66 | 1.0 | 2.0 | 0.00 | 0.00 | 0.00 | 85 | 1018.6 |
| 20260507055554 | 57 | 83 | 0.0 | 0.0 | 0.00 | 0.00 | 0.00 | 84 | 1018.7 |
| 20260507055051 | 57 | 74 | 0.0 | 1.0 | 0.00 | 0.00 | 0.00 | 85 | 1018.6 |
| 20260507054547 | 57 | 83 | 1.0 | 2.0 | 0.00 | 0.00 | 0.00 | 85 | 1018.8 |
| 20260507054044 | 57 | 85 | 1.0 | 1.0 | 0.00 | 0.00 | 0.00 | 85 | 1018.6 |
| 20260507053542 | 57 | 88 | 0.0 | 0.0 | 0.00 | 0.00 | 0.00 | 85 | 1018.7 |
| 20260507053040 | 57 | 61 | 1.0 | 1.0 | 0.00 | 0.00 | 0.00 | 84 | 1018.5 |
| 20260507052537 | 57 | 44 | 1.0 | 2.0 | 0.00 | 0.00 | 0.00 | 85 | 1018.6 |
| 20260507052034 | 58 | 76 | 1.0 | 1.0 | 0.00 | 0.00 | 0.00 | 86 | 1018.7 |
| 20260507051532 | 58 | 77 | 1.0 | 1.0 | 0.00 | 0.00 | 0.00 | 85 | 1018.8 |
| 20260507051028 | 58 | 62 | 1.0 | 2.0 | 0.00 | 0.00 | 0.00 | 85 | 1019.0 |
| 20260507050525 | 58 | 91 | 1.0 | 1.0 | 0.00 | 0.00 | 0.00 | 85 | 1018.7 |
| 20260507050022 | 58 | 80 | 0.0 | 0.0 | 0.00 | 0.16 | 0.16 | 84 | 1018.6 |
| 20260507045518 | 59 | 132 | 1.0 | 1.0 | 0.00 | 0.16 | 0.16 | 84 | 1018.8 |
| 20260507045016 | 59 | 149 | 0.0 | 1.0 | 0.00 | 0.16 | 0.16 | 83 | 1018.9 |
| 20260507044512 | 59 | 64 | 1.0 | 2.0 | 0.00 | 0.16 | 0.16 | 83 | 1018.6 |
| 20260507044009 | 59 | 163 | 0.0 | 2.0 | 0.00 | 0.16 | 0.16 | 83 | 1018.7 |
| 20260507043505 | 59 | 146 | 1.0 | 1.0 | 0.00 | 0.16 | 0.16 | 84 | 1018.7 |
| 20260507043001 | 59 | 91 | 1.0 | 1.0 | 0.00 | 0.16 | 0.16 | 84 | 1018.8 |
| 20260507042458 | 59 | 72 | 3.0 | 5.0 | 0.00 | 0.16 | 0.16 | 83 | 1018.8 |
| 20260507041954 | 59 | 347 | 2.0 | 3.0 | 0.00 | 0.16 | 0.16 | 83 | 1018.9 |
| 20260507041451 | 59 | 58 | 1.0 | 2.0 | 0.00 | 0.16 | 0.16 | 83 | 1019.0 |
| 20260507040948 | 59 | 79 | 1.0 | 1.0 | 0.00 | 0.16 | 0.16 | 83 | 1019.3 |
| 20260507040443 | 59 | 17 | 0.0 | 0.0 | 0.00 | 0.16 | 0.16 | 83 | 1019.1 |
| 20260507035939 | 59 | 23 | 1.0 | 1.0 | 0.00 | 0.16 | 0.16 | 83 | 1019.2 |
| 20260507035436 | 59 | 73 | 2.0 | 2.0 | 0.00 | 0.16 | 0.16 | 83 | 1019.1 |
| 20260507034933 | 59 | 330 | 1.0 | 1.0 | 0.00 | 0.16 | 0.16 | 83 | 1019.2 |
| 20260507034430 | 59 | 348 | 3.0 | 3.0 | 0.00 | 0.16 | 0.16 | 83 | 1019.1 |
| 20260507033928 | 59 | 315 | 2.0 | 2.0 | 0.00 | 0.16 | 0.16 | 83 | 1019.1 |